SWA431 PHNL-PHLI

Flight info

Callsign SWA431
Flight time 0h 27m
Altitude 14000
Route KEOLA3 LIH
Aircraft B738/M-SDE2E3FGHIRWXY/LB1

Departure

Time 2026-04-26 21:01
Airport Daniel K. Inouye International Airport (PHNL)

Arrival

Time 2026-04-26 21:28
Airport Lihue Airport (PHLI)
Time Latitude Longitude Altitude Speed Heading
2026-04-26 20:34 21.32959 -157.92077 16 ft 0 kts 98°
2026-04-26 20:51 21.32961 -157.92090 16 ft 4 kts 98°
2026-04-26 20:51 21.32965 -157.92119 17 ft 3 kts 98°
2026-04-26 20:51 21.32970 -157.92139 19 ft 4 kts 134°
2026-04-26 20:52 21.32991 -157.92147 17 ft 4 kts 189°
2026-04-26 20:52 21.33016 -157.92142 18 ft 4 kts 189°
2026-04-26 20:52 21.33027 -157.92140 17 ft 1 kts 189°
2026-04-26 20:54 21.33026 -157.92141 16 ft 1 kts 189°
2026-04-26 20:54 21.32989 -157.92147 15 ft 10 kts 189°
2026-04-26 20:54 21.32908 -157.92162 16 ft 13 kts 189°
2026-04-26 20:54 21.32836 -157.92177 18 ft 10 kts 201°
2026-04-26 20:55 21.32782 -157.92217 18 ft 9 kts 220°
2026-04-26 20:55 21.32730 -157.92255 18 ft 9 kts 198°
2026-04-26 20:55 21.32665 -157.92246 19 ft 12 kts 169°
2026-04-26 20:55 21.32569 -157.92244 20 ft 14 kts 183°
2026-04-26 20:56 21.32480 -157.92279 23 ft 13 kts 197°
2026-04-26 20:56 21.32401 -157.92295 25 ft 11 kts 159°
2026-04-26 20:56 21.32390 -157.92224 26 ft 9 kts 88°
2026-04-26 20:56 21.32386 -157.92155 23 ft 10 kts 100°
2026-04-26 20:57 21.32351 -157.92113 18 ft 4 kts 161°
2026-04-26 20:57 21.32291 -157.92090 22 ft 12 kts 148°
2026-04-26 20:57 21.32216 -157.92040 20 ft 11 kts 149°
2026-04-26 20:57 21.32162 -157.92079 19 ft 11 kts 244°
2026-04-26 20:58 21.32117 -157.92147 19 ft 11 kts 233°
2026-04-26 20:58 21.32071 -157.92213 21 ft 11 kts 233°
2026-04-26 20:58 21.32025 -157.92277 20 ft 11 kts 232°
2026-04-26 20:58 21.31980 -157.92339 19 ft 11 kts 232°
2026-04-26 20:59 21.31945 -157.92378 18 ft 8 kts 205°
2026-04-26 20:59 21.31887 -157.92353 17 ft 10 kts 149°
2026-04-26 20:59 21.31864 -157.92287 17 ft 10 kts 68°
2026-04-26 20:59 21.31917 -157.92278 19 ft 1 kts 326°
2026-04-26 21:00 21.31919 -157.92340 17 ft 13 kts 237°
2026-04-26 21:00 21.31854 -157.92315 17 ft 13 kts 97°
2026-04-26 21:00 21.31887 -157.92244 19 ft 15 kts 53°
2026-04-26 21:00 21.32143 -157.91889 20 ft 107 kts 53°
2026-04-26 21:01 21.32762 -157.91022 196 ft 172 kts 52°
2026-04-26 21:01 21.33539 -157.90023 1383 ft 174 kts 36°
2026-04-26 21:01 21.34683 -157.89720 2555 ft 185 kts
2026-04-26 21:01 21.36026 -157.90148 3024 ft 223 kts 332°
2026-04-26 21:02 21.37167 -157.91429 3374 ft 253 kts 298°
2026-04-26 21:02 21.37517 -157.93288 4111 ft 259 kts 268°
2026-04-26 21:02 21.37328 -157.95223 4827 ft 267 kts 261°
2026-04-26 21:02 21.37010 -157.97249 5408 ft 282 kts 259°
2026-04-26 21:03 21.36670 -157.99321 6483 ft 282 kts 259°
2026-04-26 21:03 21.36340 -158.01403 7485 ft 284 kts 260°
2026-04-26 21:03 21.36020 -158.03516 8415 ft 289 kts 261°
2026-04-26 21:03 21.35710 -158.05653 9395 ft 292 kts 262°
2026-04-26 21:04 21.35404 -158.07819 10296 ft 297 kts 262°
2026-04-26 21:04 21.35089 -158.10091 10665 ft 321 kts 262°
2026-04-26 21:04 21.34753 -158.12554 10873 ft 347 kts 262°
2026-04-26 21:04 21.34393 -158.15205 11053 ft 370 kts 262°
2026-04-26 21:05 21.34017 -158.17993 11458 ft 383 kts 262°
2026-04-26 21:05 21.33633 -158.20842 12071 ft 388 kts 262°
2026-04-26 21:05 21.33246 -158.23709 12781 ft 391 kts 262°
2026-04-26 21:05 21.32856 -158.26600 13517 ft 390 kts 262°
2026-04-26 21:06 21.32466 -158.29489 13915 ft 390 kts 262°
2026-04-26 21:06 21.32076 -158.32376 13996 ft 398 kts 262°
2026-04-26 21:06 21.31670 -158.35379 13999 ft 414 kts 262°
2026-04-26 21:06 21.31253 -158.38460 13990 ft 418 kts 262°
2026-04-26 21:07 21.30834 -158.41541 13993 ft 419 kts 262°
2026-04-26 21:07 21.30415 -158.44645 13985 ft 423 kts 263°
2026-04-26 21:07 21.30362 -158.47803 13971 ft 423 kts 277°
2026-04-26 21:07 21.31033 -158.50853 13979 ft 419 kts 291°
2026-04-26 21:08 21.32332 -158.53633 13971 ft 417 kts 303°
2026-04-26 21:08 21.33901 -158.56254 13970 ft 417 kts 304°
2026-04-26 21:08 21.35476 -158.58866 13974 ft 418 kts 303°
2026-04-26 21:08 21.37049 -158.61494 13975 ft 419 kts 303°
2026-04-26 21:09 21.38610 -158.64129 13970 ft 419 kts 303°
2026-04-26 21:09 21.40166 -158.66778 13970 ft 420 kts 302°
2026-04-26 21:09 21.41718 -158.69436 13978 ft 420 kts 303°
2026-04-26 21:09 21.43266 -158.72094 13967 ft 420 kts 303°
2026-04-26 21:10 21.44815 -158.74756 13976 ft 421 kts 302°
2026-04-26 21:10 21.46364 -158.77418 13978 ft 420 kts 303°
2026-04-26 21:10 21.47912 -158.80081 13973 ft 420 kts 303°
2026-04-26 21:10 21.49461 -158.82744 13974 ft 420 kts 303°
2026-04-26 21:11 21.51006 -158.85400 13977 ft 420 kts 303°
2026-04-26 21:11 21.52555 -158.88065 13968 ft 420 kts 303°
2026-04-26 21:11 21.54106 -158.90728 13969 ft 420 kts 303°
2026-04-26 21:11 21.55651 -158.93385 13968 ft 420 kts 303°
2026-04-26 21:12 21.57198 -158.96044 13975 ft 420 kts 303°
2026-04-26 21:12 21.58744 -158.98703 13977 ft 420 kts 303°
2026-04-26 21:12 21.60283 -159.01353 13969 ft 415 kts 303°
2026-04-26 21:12 21.61805 -159.03974 13854 ft 414 kts 303°
2026-04-26 21:13 21.63326 -159.06594 13592 ft 413 kts 303°
2026-04-26 21:13 21.64840 -159.09207 13339 ft 410 kts 303°
2026-04-26 21:13 21.66345 -159.11805 13091 ft 409 kts 303°
2026-04-26 21:13 21.67845 -159.14393 12847 ft 407 kts 302°
2026-04-26 21:14 21.69338 -159.16971 12186 ft 405 kts 302°
2026-04-26 21:14 21.70815 -159.19523 11520 ft 400 kts 302°
2026-04-26 21:14 21.72323 -159.21990 11159 ft 387 kts 309°
2026-04-26 21:14 21.74178 -159.23990 10998 ft 369 kts 322°
2026-04-26 21:15 21.76340 -159.25333 10825 ft 353 kts 342°
2026-04-26 21:15 21.78703 -159.25725 10687 ft 338 kts
2026-04-26 21:15 21.80926 -159.25150 10550 ft 324 kts 26°
2026-04-26 21:15 21.82681 -159.23734 10460 ft 310 kts 50°
2026-04-26 21:16 21.83676 -159.21774 10413 ft 291 kts 75°
2026-04-26 21:16 21.83768 -159.19672 10403 ft 278 kts 102°
2026-04-26 21:16 21.83008 -159.17807 10227 ft 273 kts 128°
2026-04-26 21:16 21.81562 -159.16510 9750 ft 275 kts 154°
2026-04-26 21:17 21.79729 -159.15906 9259 ft 276 kts 166°
2026-04-26 21:17 21.77845 -159.15495 8784 ft 277 kts 168°
2026-04-26 21:17 21.75961 -159.15111 8362 ft 274 kts 168°
2026-04-26 21:17 21.74094 -159.14739 7929 ft 271 kts 168°
2026-04-26 21:18 21.72248 -159.14377 7493 ft 269 kts 168°
2026-04-26 21:18 21.70409 -159.14019 7065 ft 267 kts 168°
2026-04-26 21:18 21.68593 -159.13670 6638 ft 265 kts 168°
2026-04-26 21:18 21.66768 -159.13484 6215 ft 266 kts 186°
2026-04-26 21:19 21.65042 -159.14150 5987 ft 268 kts 212°
2026-04-26 21:19 21.63742 -159.15599 5751 ft 273 kts 239°
2026-04-26 21:19 21.63198 -159.17543 5506 ft 275 kts 268°
2026-04-26 21:19 21.63565 -159.19542 5264 ft 275 kts 297°
2026-04-26 21:20 21.64758 -159.21095 5026 ft 269 kts 326°
2026-04-26 21:20 21.66377 -159.21968 4923 ft 252 kts 342°
2026-04-26 21:20 21.67998 -159.22531 4805 ft 237 kts 346°
2026-04-26 21:20 21.69528 -159.23033 4719 ft 223 kts 346°
2026-04-26 21:21 21.70970 -159.23515 4604 ft 211 kts 346°
2026-04-26 21:21 21.72341 -159.23979 4375 ft 207 kts 345°
2026-04-26 21:21 21.73569 -159.24763 4180 ft 205 kts 320°
2026-04-26 21:21 21.74506 -159.25899 4050 ft 202 kts 307°
2026-04-26 21:22 21.75254 -159.27162 3950 ft 199 kts 304°
2026-04-26 21:22 21.75976 -159.28423 3869 ft 198 kts 304°
2026-04-26 21:22 21.76704 -159.29682 3789 ft 198 kts 304°
2026-04-26 21:23 21.78197 -159.32237 3482 ft 206 kts 307°
2026-04-26 21:23 21.79255 -159.33169 3363 ft 192 kts 348°
2026-04-26 21:23 21.80528 -159.33348 3171 ft 181 kts 358°
2026-04-26 21:23 21.81741 -159.33503 2939 ft 169 kts 360°
2026-04-26 21:24 21.82495 -159.33560 2829 ft 158 kts
2026-04-26 21:24 21.83530 -159.33587 2633 ft 139 kts
2026-04-26 21:24 21.84481 -159.33592 2437 ft 134 kts
2026-04-26 21:24 21.85410 -159.33592 2260 ft 134 kts
2026-04-26 21:25 21.86351 -159.33592 2091 ft 135 kts
2026-04-26 21:25 21.87280 -159.33591 1904 ft 134 kts
2026-04-26 21:25 21.88221 -159.33591 1738 ft 135 kts
2026-04-26 21:25 21.89141 -159.33591 1554 ft 130 kts
2026-04-26 21:26 21.90035 -159.33590 1386 ft 127 kts
2026-04-26 21:26 21.90922 -159.33591 1225 ft 128 kts
2026-04-26 21:26 21.91821 -159.33590 1039 ft 132 kts
2026-04-26 21:26 21.92744 -159.33589 869 ft 133 kts
2026-04-26 21:27 21.93672 -159.33590 675 ft 132 kts
2026-04-26 21:27 21.94560 -159.33589 521 ft 124 kts
2026-04-26 21:27 21.95422 -159.33588 300 ft 128 kts
2026-04-26 21:27 21.96316 -159.33606 195 ft 123 kts
2026-04-26 21:28 21.97105 -159.33593 98 ft 102 kts
2026-04-26 21:28 21.97561 -159.33592 99 ft 26 kts 355°
2026-04-26 21:28 21.97664 -159.33599 100 ft 10 kts 356°
2026-04-26 21:28 21.97732 -159.33609 101 ft 10 kts 343°
2026-04-26 21:29 21.97784 -159.33628 101 ft 7 kts 339°
2026-04-26 21:29 21.97832 -159.33649 100 ft 7 kts 337°
2026-04-26 21:29 21.97882 -159.33674 100 ft 9 kts 333°
2026-04-26 21:29 21.97937 -159.33721 101 ft 11 kts 297°
2026-04-26 21:30 21.97940 -159.33799 104 ft 10 kts 266°
2026-04-26 21:30 21.97941 -159.33875 109 ft 10 kts 271°
2026-04-26 21:30 21.97941 -159.33949 114 ft 10 kts 269°
2026-04-26 21:30 21.97940 -159.34022 115 ft 10 kts 269°
2026-04-26 21:31 21.97939 -159.34091 117 ft 8 kts 274°
2026-04-26 21:31 21.97967 -159.34144 116 ft 10 kts 321°
2026-04-26 21:31 21.98036 -159.34154 116 ft 11 kts
2026-04-26 21:31 21.98098 -159.34173 116 ft 3 kts 298°
2026-04-26 21:32 21.98082 -159.34205 115 ft 11 kts 230°
2026-04-26 21:32 21.98017 -159.34278 119 ft 14 kts 224°
2026-04-26 21:32 21.97954 -159.34344 125 ft 8 kts 225°
2026-04-26 21:32 21.97894 -159.34410 129 ft 20 kts 225°
2026-04-26 21:33 21.97792 -159.34519 135 ft 20 kts 225°
2026-04-26 21:33 21.97731 -159.34594 138 ft 8 kts 252°
2026-04-26 21:33 21.97762 -159.34651 138 ft 11 kts 310°
2026-04-26 21:33 21.97790 -159.34724 138 ft 11 kts 277°
2026-04-26 21:34 21.97828 -159.34775 138 ft 4 kts 318°
2026-04-26 21:34 21.97836 -159.34782 137 ft 0 kts 318°